(134369) Sahara = 1995 QE

Discovered at Colleverde on 1995-08-17 by V. S. Casulli.
(134369) Sahara = 1995 QE

The Sahara desert is the world's largest hot desert. Located in north Africa, it stretches from the Red Sea to the Atlantic ocean. [Ref: Minor Planet Circ. 106503]

Orbit

Orbit type: Main Belt

Note: WebGL enabled browser required.

epoch2024-03-31.0
epoch JD2460400.5
perihelion date2022-09-19.12454
perihelion JD2459841.62454
argument of perihelion (°)212.64947
ascending node (°)165.01992
inclination (°)13.57677
eccentricity0.3004777
perihelion distance (AU)2.1356251
Tisserand w.r.t. Jupiter3.1
ΔV w.r.t. Earth (km/sec)10.1
semimajor axis (AU)3.0529763
mean anomaly (°)103.26038
mean daily motion (°/day)0.18476460
aphelion distance (AU)3.970
period (years)5.33
P-vector [x]0.94892699
P-vector [y]0.31549325
P-vector [z]-0.00125355
Q-vector [x]-0.30960570
Q-vector [y]0.93196813
Q-vector [z]0.18862585
absolute magnitude15.48
phase slope0.15
uncertainty0
referenceMPEC 2024-E73
observations used802
oppositions20
arc length (days)10427
first opposition used1995
last opposition used2024
residual rms (arc-secs)0.67
perturbers coarse indicatorM-v
perturbers precise indicator003Ek
first observation date used1995-08-17.0
last observation date used2024-03-05.0
computer nameMPCLINUX
JD of orbit computation2456760.618900
perihelion JD uncertainty (days)5.5428E-05
argument of perihelion uncertainty (°)2.6184E-05
ascending node uncertainty (°)2.3993E-05
inclination uncertainty (°)7.0567E-06
eccentricity uncertainty 5.5513E-08
perihelion distance uncertainty (AU)1.6856E-07
Minimum Orbit Intersection Distances (in AU)
for orbit epoch: 2460400.5, reference: E2024-E73
Mercury1.79052
Venus1.4129
Earth1.14898
Mars0.74845
Jupiter1.53863
Saturn5.62736
Uranus14.5608
Neptune26.679

Observations

818 total observations over interval: 1995 08 17.87492 – 2024 03 05.197848
These data are available for download (format description).

Date (UT) J2000 RA J2000 Dec Magn Location Ref
1995 08 17.87492 22 40 02.36 -03 10 17.7 18.5 V 596 – Colleverde di Guidonia MPC 25579
1995 08 17.89262 22 40 01.84 -03 10 28.4   596 – Colleverde di Guidonia MPC 25579
1995 08 17.90975 22 40 01.32 -03 10 39.1   596 – Colleverde di Guidonia MPC 25579
1995 08 17.93605 22 40 00.46 -03 10 54.9   596 – Colleverde di Guidonia MPC 25579
1995 08 18.86689 22 39 31.93 -03 20 21.0   596 – Colleverde di Guidonia MPC 25579
1995 08 18.87604 22 39 31.65 -03 20 26.5   596 – Colleverde di Guidonia MPC 25579
1995 08 18.88773 22 39 31.30 -03 20 33.5   596 – Colleverde di Guidonia MPC 25579
1995 08 20.90899 22 38 26.63 -03 41 34.3 18.4 V 596 – Colleverde di Guidonia MPC 25579
1995 08 20.92065 22 38 26.27 -03 41 41.5   596 – Colleverde di Guidonia MPC 25579
1995 08 20.93024 22 38 25.95 -03 41 47.1   596 – Colleverde di Guidonia MPC 25579
1995 08 22.88208 22 37 20.83 -04 02 48.0 18.5 V 596 – Colleverde di Guidonia MPC 25579
1995 08 22.89237 22 37 20.48 -04 02 54.3   596 – Colleverde di Guidonia MPC 25579
1995 08 22.89993 22 37 20.22 -04 02 59.2   596 – Colleverde di Guidonia MPC 25579
1995 08 29.83667 22 33 13.25 -05 22 01.2 18.1 V 596 – Colleverde di Guidonia MPC 25579
1995 08 29.84803 22 33 12.70 -05 22 09.9   596 – Colleverde di Guidonia MPC 25579
1995 08 29.85911 22 33 12.32 -05 22 17.3   596 – Colleverde di Guidonia MPC 25579
1995 08 29.87042 22 33 11.84 -05 22 25.2   596 – Colleverde di Guidonia MPC 25579
1995 09 29.90426 22 18 10.18 -11 13 17.1 19.0 V 589 – Santa Lucia Stroncone MPC 25794
1995 09 29.91155 22 18 10.08 -11 13 21.0   589 – Santa Lucia Stroncone MPC 25794
1995 09 29.91745 22 18 10.01 -11 13 24.5   589 – Santa Lucia Stroncone MPC 25794
1997 01 17.01334 08 23 11.51 +05 37 08.7 20.4 V 599 – Campo Imperatore-CINEOS MPS 35342
1997 01 17.04757 08 23 09.80 +05 37 18.6   599 – Campo Imperatore-CINEOS MPS 35342
1998 03 02.41473 12 19 35.62 +02 16 44.3 21.4 V 691 – Steward Observatory, Kitt Peak-Spacewatch MPS 35342
1998 03 02.43580 12 19 34.89 +02 16 52.1 21.9 V 691 – Steward Observatory, Kitt Peak-Spacewatch MPS 35342
1998 03 02.45679 12 19 34.15 +02 17 00.3 21.5 V 691 – Steward Observatory, Kitt Peak-Spacewatch MPS 35342
2001 11 15.37151 06 17 40.85 +03 03 44.9 19.1   704 – Lincoln Laboratory ETS, New Mexico MPS 42782
2001 11 15.38597 06 17 40.49 +03 03 40.6 19.2   704 – Lincoln Laboratory ETS, New Mexico MPS 42782
2001 11 15.40040 06 17 40.09 +03 03 37.0 19.2   704 – Lincoln Laboratory ETS, New Mexico MPS 42782
2001 11 15.41487 06 17 39.80 +03 03 32.5 19.4   704 – Lincoln Laboratory ETS, New Mexico MPS 42782
2001 11 15.43026 06 17 39.40 +03 03 28.0 19.6   704 – Lincoln Laboratory ETS, New Mexico MPS 42782
2001 12 07.29313 06 03 58.45 +01 58 50.9 19.1   704 – Lincoln Laboratory ETS, New Mexico MPS 42782
2001 12 07.30815 06 03 57.71 +01 58 49.7 19.2   704 – Lincoln Laboratory ETS, New Mexico MPS 42782
2001 12 07.32320 06 03 56.92 +01 58 49.5 19.3   704 – Lincoln Laboratory ETS, New Mexico MPS 42782
2001 12 07.33826 06 03 56.14 +01 58 48.8 19.3   704 – Lincoln Laboratory ETS, New Mexico MPS 42782
2001 12 07.35333 06 03 55.41 +01 58 48.1 19.4   704 – Lincoln Laboratory ETS, New Mexico MPS 42782
2003 04 05.15436 10 38 35.91 +09 13 36.9 21.7 V 691 – Steward Observatory, Kitt Peak-Spacewatch MPS 75530
2003 04 05.16387 10 38 35.64 +09 13 38.8 22.0 V 291 – LPL/Spacewatch II MPS 75530
2003 04 05.18193 10 38 35.16 +09 13 44.3 22.3 V 691 – Steward Observatory, Kitt Peak-Spacewatch MPS 75530
2003 04 05.18728 10 38 35.05 +09 13 45.2 21.9 V 291 – LPL/Spacewatch II MPS 75530
2003 04 05.21070 10 38 34.50 +09 13 52.3 22.0 V 291 – LPL/Spacewatch II MPS 75530
2003 04 05.21145 10 38 34.40 +09 13 52.9 21.9 V 691 – Steward Observatory, Kitt Peak-Spacewatch MPS 75530
2005 06 27.88524 17 06 03.30 -03 36 02.4 20.2 V A55 – Osservatorio Astronomico Vallemare di Borbona MPS 136818
2005 06 27.91576 17 06 01.93 -03 36 04.7 20.4 V A55 – Osservatorio Astronomico Vallemare di Borbona MPS 136818
2005 07 04.18133 17 01 34.65 -03 46 58.9 20.7   644 – Palomar Mountain/NEAT MPS 137347
2005 07 04.24675 17 01 31.92 -03 47 07.7 20.5   644 – Palomar Mountain/NEAT MPS 137347
2005 07 04.32086 17 01 28.85 -03 47 17.3 20.5   644 – Palomar Mountain/NEAT MPS 137347
2006 07 28.07809 01 44 14.64 +06 28 34.8 19.5 V A55 – Osservatorio Astronomico Vallemare di Borbona MPS 175401
2006 07 28.08524 01 44 15.23 +06 28 35.0 19.6 V A55 – Osservatorio Astronomico Vallemare di Borbona MPS 175401
2006 07 28.09239 01 44 15.74 +06 28 34.8 19.6 V A55 – Osservatorio Astronomico Vallemare di Borbona MPS 175401
2006 07 28.09955 01 44 16.33 +06 28 35.0 19.5 V A55 – Osservatorio Astronomico Vallemare di Borbona MPS 175401
2006 07 31.06081 01 48 05.89 +06 26 51.6 19.5 V A55 – Osservatorio Astronomico Vallemare di Borbona MPS 175401
2006 07 31.07083 01 48 06.53 +06 26 51.8 19.4 V A55 – Osservatorio Astronomico Vallemare di Borbona MPS 175401
2006 07 31.08086 01 48 07.32 +06 26 51.2 19.4 V A55 – Osservatorio Astronomico Vallemare di Borbona MPS 175401
2006 08 05.00834 01 54 11.40 +06 20 10.7 19.2 V A55 – Osservatorio Astronomico Vallemare di Borbona MPS 175505
2006 08 05.01550 01 54 11.91 +06 20 10.1 19.2 V A55 – Osservatorio Astronomico Vallemare di Borbona MPS 175505
2006 08 05.02266 01 54 12.42 +06 20 08.9 19.1 V A55 – Osservatorio Astronomico Vallemare di Borbona MPS 175505
2006 08 05.02981 01 54 12.92 +06 20 08.4 19.1 V A55 – Osservatorio Astronomico Vallemare di Borbona MPS 175505
2006 08 23.31725 02 12 51.48 +05 10 50.4 19.5   704 – Lincoln Laboratory ETS, New Mexico MPS 175900
2006 08 23.33866 02 12 52.59 +05 10 43.8 19.3   704 – Lincoln Laboratory ETS, New Mexico MPS 175900
2006 08 23.34934 02 12 53.10 +05 10 40.9 19.2   704 – Lincoln Laboratory ETS, New Mexico MPS 175900
2006 09 16.37931 02 25 03.02 +01 49 05.6 18.2 R 699 – Lowell Observatory-LONEOS MPS 180643
2006 09 16.39755 02 25 03.13 +01 48 54.2   699 – Lowell Observatory-LONEOS MPS 180643
2006 09 16.41580 02 25 03.28 +01 48 42.2   699 – Lowell Observatory-LONEOS MPS 180643
2006 09 16.43407 02 25 03.44 +01 48 30.6   699 – Lowell Observatory-LONEOS MPS 180643
2006 09 18.33666 02 25 19.02 +01 27 47.8 18.5 V 703 – Catalina Sky Survey MPS 180643
2006 09 18.34470 02 25 19.05 +01 27 42.3 18.5 V 703 – Catalina Sky Survey MPS 180643
2006 09 18.35277 02 25 19.09 +01 27 37.0 18.6 V 703 – Catalina Sky Survey MPS 180643
2006 09 18.36083 02 25 19.16 +01 27 31.9 18.6 V 703 – Catalina Sky Survey MPS 180643
2006 09 22.38145 02 25 30.01 +00 42 04.2 18.9   705 – Apache Point MPS 195196
2006 09 22.38228 02 25 30.01 +00 42 03.6 18.5 V 705 – Apache Point MPS 195196
2006 09 26.29523 02 25 13.63 -00 03 57.8 18.2 C 704 – Lincoln Laboratory ETS, New Mexico MPS 294188
2006 09 26.30729 02 25 13.49 -00 04 07.0 18.2 C 704 – Lincoln Laboratory ETS, New Mexico MPS 294188
2006 09 26.31967 02 25 13.36 -00 04 15.0 17.8 C 704 – Lincoln Laboratory ETS, New Mexico MPS 294188
2006 09 26.33193 02 25 13.26 -00 04 24.4 18.0 C 704 – Lincoln Laboratory ETS, New Mexico MPS 294188
2006 09 26.34411 02 25 13.19 -00 04 32.7 18.1 C 704 – Lincoln Laboratory ETS, New Mexico MPS 294188
2006 09 29.43710 02 24 41.28 -00 41 48.3 17.9 R 699 – Lowell Observatory-LONEOS MPS 182351
2006 09 29.45351 02 24 41.06 -00 42 00.2   699 – Lowell Observatory-LONEOS MPS 182351
2006 09 29.46996 02 24 40.78 -00 42 11.1   699 – Lowell Observatory-LONEOS MPS 182351
2006 09 29.48638 02 24 40.53 -00 42 23.6   699 – Lowell Observatory-LONEOS MPS 182351
2006 09 30.29567 02 24 30.07 -00 52 12.7 18.0   704 – Lincoln Laboratory ETS, New Mexico MPS 183551
2006 09 30.30793 02 24 29.90 -00 52 20.8 18.6   704 – Lincoln Laboratory ETS, New Mexico MPS 183551
2006 09 30.32017 02 24 29.67 -00 52 31.0 18.9   704 – Lincoln Laboratory ETS, New Mexico MPS 183551
2006 09 30.33242 02 24 29.48 -00 52 39.5 18.7   704 – Lincoln Laboratory ETS, New Mexico MPS 183551
2006 09 30.34466 02 24 29.26 -00 52 48.5 18.6   704 – Lincoln Laboratory ETS, New Mexico MPS 183551
2006 10 10.39625 02 20 54.24 -02 54 41.5 17.9 R 644 – Palomar Mountain/NEAT MPS 183821
